Temp
90 90 89 88 88 91 89 88 89 89 90 90 90 91 93 91 87 88 87 85 85 84 84 84 85 85 85 85 84 83 84 84 85 85 85 86 86 86 86 87 87 86 88 88 87 87 87 89 89 90 89 89 88 88 87 87 87 89 88 88 86 82 85
88 90 90 91 89 90 91 90 90 90 91 91 91 90 91 91 88 88 86 86 86 85 85 85 84 85 85 85 86 85 84 84 86 86 87 86 85 86 87 88 87 87 87 88 88 88 89 90 90 89 89 89 89 88 89 87 87 88 88 87 86 85 85
85 88 88 88 89 91 89 90 91 92 91 91 92 92 91 88 89 88 87 87 86 86 87 86 85 85 86 85 85 85 86 87 87 88 88 88 87 89 88 88 88 89 90 90 88 89 90 90 89 88 89 89 91 88 88 87 87 88 88 87 87 88 85
82 85 87 90 89 90 89 89 90 93 93 92 93 92 91 89 92 89 89 88 87 86 86 87 87 87 87 85 85 86 86 87 88 89 90 89 89 89 88 88 88 89 89 90 90 90 93 90 89 88 88 88 88 88 89 88 89 88 88 87 87 88 87
83 84 86 86 86 87 88 89 89 91 92 94 94 92 93 92 94 92 91 91 91 88 89 89 90 89 88 88 89 89 88 88 88 89 90 90 89 90 89 90 90 91 90 92 90 89 88 88 89 88 88 88 89 88 88 89 89 88 87 87 86 88 88
82 79 81 85 86 88 90 90 92 93 92 93 93 93 94 95 95 94 93 91 91 91 90 89 90 89 88 89 89 90 88 88 87 88 90 88 88 90 90 90 92 91 92 91 92 91 90 90 90 89 89 90 91 91 91 90 90 90 88 87 87 88 89
82 80 79 82 85 86 89 89 91 92 94 94 93 94 95 95 95 95 94 92 93 90 91 91 91 90 89 89 88 88 88 89 89 89 91 91 89 91 90 91 91 92 93 91 91 91 90 90 90 90 90 91 89 91 89 88 88 89 87 86 86 87 87
81 82 81 84 85 86 87 90 92 94 94 94 93 91 94 95 95 95 95 90 91 90 91 92 92 90 89 89 90 90 89 89 90 90 90 91 91 91 92 92 91 91 92 92 91 92 92 90 92 91 91 91 90 89 91 88 88 91 89 87 86 87 90
79 80 83 84 86 86 85 86 89 92 92 93 93 92 94 94 94 93 95 92 91 89 88 91 91 91 89 90 89 89 90 91 90 90 91 91 91 92 92 92 92 91 91 93 93 92 92 91 92 89 90 90 89 89 88 86 88 89 89 88 87 86 88
77 76 78 84 85 86 83 83 85 85 86 88 90 90 93 93 94 94 90 91 93 89 91 94 90 88 87 88 90 91 91 90 91 92 91 92 91 92 92 92 92 92 92 92 92 93 90 90 91 91 88 89 89 88 88 87 87 89 89 88 88 87 86
78 78 78 80 83 83 83 83 82 81 83 82 84 89 90 91 91 93 88 88 90 89 90 90 89 88 88 88 88 89 90 91 92 91 91 92 93 93 94 91 92 92 93 92 90 90 92 89 90 89 88 91 89 88 87 88 88 88 90 90 89 88 88
76 77 75 78 81 82 81 81 81 81 82 82 83 84 85 87 88 89 87 87 89 88 88 89 89 89 88 88 88 87 88 90 91 92 92 92 93 93 92 93 92 92 92 93 90 89 91 92 91 89 88 89 89 89 88 88 88 88 88 90 90 89 89
77 77 76 77 76 80 80 81 81 81 82 83 85 85 85 85 87 87 86 87 88 88 87 88 88 87 87 90 89 86 87 88 89 91 93 92 93 95 94 91 93 92 93 92 91 90 90 92 91 90 90 89 90 90 88 88 89 87 88 88 89 88 87
74 72 74 77 78 80 81 81 82 82 82 85 85 85 85 86 88 87 86 86 87 87 88 88 88 87 87 87 88 86 87 87 89 91 91 92 89 91 95 94 91 92 92 91 91 92 91 91 91 92 91 90 91 90 89 88 88 88 87 88 89 88 86
68 70 72 73 78 81 82 82 81 81 82 81 82 81 82 85 87 87 87 87 86 87 87 87 87 87 86 86 86 86 86 87 89 89 89 91 89 89 91 93 91 90 91 90 91 94 93 91 91 91 91 90 89 90 90 90 88 87 87 87 87 87 87
68 67 69 71 76 79 81 82 82 81 81 81 81 81 81 81 82 84 86 86 85 85 85 86 86 86 86 85 85 86 86 87 87 87 88 89 89 89 90 92 93 92 90 91 91 91 90 89 88 90 90 90 88 89 91 90 90 85 85 86 87 87 88
67 68 69 69 68 71 76 82 82 81 80 80 81 81 80 81 82 84 85 84 83 83 84 85 83 80 79 81 84 83 85 86 86 86 86 87 88 88 88 88 89 90 89 89 90 89 89 92 92 91 91 91 90 88 90 87 76 68 67 72 78 88 86
68 70 68 69 72 72 69 72 79 81 81 82 82 81 81 81 82 82 83 84 84 84 85 85 81 79 79 78 79 78 75 73 75 80 84 85 83 84 86 87 87 86 87 89 91 88 92 92 91 91 93 93 90 90 84 76 66 63 65 68 68 72 83
77 73 72 71 70 68 69 70 70 71 75 78 80 81 83 83 82 82 82 82 83 84 83 83 81 79 78 78 78 77 74 73 74 72 71 71 72 72 74 76 78 79 81 85 87 90 88 88 89 89 90 91 89 85 80 74 63 63 64 65 65 67 77
76 75 70 70 70 70 71 70 71 73 72 70 70 72 72 73 74 77 81 82 83 83 82 82 82 80 79 78 78 75 73 74 72 71 73 73 72 72 73 74 76 77 77 77 81 84 86 90 87 88 88 88 83 77 75 70 62 61 62 63 63 66 72
72 72 72 71 70 70 70 71 72 70 71 72 75 74 73 72 76 80 80 80 81 81 80 79 77 75 75 75 75 73 74 73 71 72 73 74 72 71 71 72 75 76 75 76 76 74 72 71 72 76 77 79 81 77 73 67 58 59 60 61 62 64 72
72 74 75 74 73 72 71 72 71 71 71 73 76 76 75 75 78 79 77 80 80 79 77 75 74 75 74 74 75 73 74 74 73 72 73 73 73 72 72 73 74 75 76 76 75 74 72 73 74 74 76 77 78 75 72 67 57 57 58 59 60 65 80
73 75 76 76 77 75 76 76 75 74 73 73 76 77 77 75 77 77 78 81 80 80 74 72 73 74 74 75 73 74 73 73 74 74 74 74 74 74 75 76 76 76 76 76 75 72 71 71 72 73 75 75 74 72 69 68 59 56 56 58 58 71 83
75 76 76 76 77 77 77 77 79 79 80 78 78 80 81 82 81 79 78 78 79 79 77 74 73 74 73 71 75 75 74 75 76 76 76 75 75 75 76 77 76 76 77 76 75 71 71 71 71 72 73 74 73 73 70 68 60 55 55 57 57 69 79
72 75 77 77 76 76 77 76 77 79 79 79 78 78 79 79 80 79 77 77 77 77 75 76 76 74 73 72 73 75 75 75 74 76 76 74 72 73 74 75 74 74 75 75 74 72 72 73 70 69 69 70 70 72 68 67 63 56 56 56 57 67 79
69 72 75 77 77 76 76 77 77 76 76 77 77 79 79 80 79 77 75 74 74 72 72 72 73 76 77 75 74 76 74 76 74 73 73 73 73 72 72 73 73 73 73 73 73 72 72 71 70 68 68 68 68 68 67 65 63 60 55 55 57 61 74
72 75 76 77 77 77 77 77 77 76 77 76 76 78 78 76 74 73 73 73 71 71 72 73 73 74 75 76 77 76 74 73 72 71 72 72 70 70 70 69 69 70 70 69 68 68 67 67 67 66 66 66 66 66 66 66 65 61 55 55 56 58 66
73 76 77 78 77 77 78 78 76 78 78 77 77 78 77 74 71 71 72 72 71 72 73 73 73 72 71 71 72 73 73 72 72 73 72 72 71 70 69 69 70 69 69 68 67 67 66 66 66 65 64 64 64 64 64 67 68 64 60 56 55 56 60
67 67 69 74 77 79 80 77 76 76 76 78 78 76 74 73 71 70 71 70 72 74 74 74 73 72 72 71 71 71 72 73 74 74 74 73 72 71 69 70 70 69 69 69 68 67 66 65 65 64 63 63 63 63 63 64 65 66 65 59 55 55 57
67 69 70 75 78 78 76 74 75 76 76 77 77 76 75 73 71 70 70 69 73 75 76 74 73 72 71 71 71 71 72 73 74 74 73 73 72 72 71 70 70 70 70 69 69 67 66 65 65 64 64 63 63 65 65 66 66 66 67 65 58 56 55
67 70 73 74 75 73 73 73 73 74 74 75 75 75 75 75 73 72 70 72 74 74 75 75 75 74 72 72 72 72 74 73 73 73 74 74 74 73 72 72 72 70 71 71 70 69 68 68 68 66 67 66 66 66 68 68 69 69 68 68 64 59 58
67 68 70 73 74 75 74 74 74 73 73 73 75 75 74 74 75 73 73 75 76 76 76 75 75 74 73 73 73 73 73 71 70 72 73 74 74 73 73 73 73 72 72 72 71 71 70 69 68 68 67 67 68 67 68 69 70 69 70 70 72 68 63
66 67 68 68 70 72 73 73 73 72 73 73 75 75 76 76 76 75 76 75 77 77 76 75 75 75 76 75 75 74 73 73 73 71 71 70 71 73 73 72 69 67 67 69 71 72 71 70 69 69 69 68 67 68 68 69 68 67 66 66 67 69 68
68 68 68 69 71 73 73 72 72 71 71 71 73 75 76 76 76 77 78 79 77 77 76 76 76 76 75 76 77 77 77 76 75 73 71 68 66 64 65 71 69 64 61 61 62 65 70 71 70 70 70 70 70 70 69 66 64 64 62 61 63 65 67
67 68 69 69 70 70 70 70 70 70 71 71 72 74 73 72 74 77 75 76 76 75 75 74 75 75 76 76 76 74 75 76 76 74 70 67 64 61 58 57 67 66 61 58 57 59 65 69 68 69 66 65 64 68 66 64 62 58 54 54 50 54 59
66 67 67 69 69 69 69 69 70 70 70 70 72 71 70 71 72 72 75 75 75 74 73 73 74 74 74 73 74 75 75 75 76 72 71 70 67 64 61 53 46 52 61 60 55 49 48 53 60 63 66 62 58 60 65 62 59 50 43 42 42 42 43
66 65 65 67 67 67 67 67 67 67 67 68 70 70 70 70 72 72 72 72 72 74 73 74 71 72 73 73 74 73 73 75 73 72 69 69 68 66 64 61 56 43 43 50 51 49 45 45 45 47 53 62 60 53 48 49 45 42 42 42 41 41 41
66 66 66 66 66 66 66 66 66 66 66 66 67 68 70 71 70 70 72 72 71 71 72 73 72 71 73 73 71 71 73 72 71 71 70 69 68 67 66 65 61 59 46 42 44 45 44 44 44 45 45 47 54 61 56 48 43 41 42 42 41 41 41
MSLP
1010.38 1010.50 1010.90 1010.94 1011.26 1011.42 1011.86 1011.98 1011.94 1012.26 1012.46 1012.70 1013.02 1013.18 1013.02 1013.54 1014.10 1014.26 1014.74 1015.10 1015.42 1015.78 1015.74 1015.74 1015.86 1015.90 1016.14 1016.34 1016.38 1016.54 1016.62 1016.82 1016.90 1017.18 1017.26 1017.26 1017.22 1017.38 1017.62 1017.62 1017.86 1017.90 1017.90 1018.26 1018.26 1018.18 1018.22 1017.94 1018.18 1018.26 1018.38 1018.58 1018.70 1018.86 1018.94 1019.02 1019.18 1019.18 1019.22 1019.30 1019.50 1019.74 1019.78
1010.70 1010.38 1010.62 1010.78 1011.18 1011.34 1011.54 1011.78 1011.86 1012.14 1012.38 1012.46 1012.70 1013.02 1013.02 1013.38 1013.82 1014.26 1014.62 1014.86 1015.14 1015.46 1015.58 1015.62 1015.82 1015.90 1015.98 1016.18 1016.14 1016.38 1016.62 1016.70 1016.66 1016.78 1016.90 1017.02 1017.10 1017.18 1017.22 1017.34 1017.54 1017.70 1017.58 1017.58 1017.74 1017.74 1017.74 1017.82 1017.82 1018.06 1018.30 1018.42 1018.54 1018.62 1018.82 1018.94 1019.02 1019.10 1019.18 1019.34 1019.50 1019.66 1019.66
1010.94 1010.46 1010.58 1010.74 1011.18 1011.22 1011.42 1011.66 1011.74 1011.86 1012.18 1012.38 1012.46 1012.78 1012.94 1013.22 1013.54 1013.94 1014.38 1014.70 1015.06 1015.22 1015.26 1015.46 1015.62 1015.74 1015.78 1015.98 1016.22 1016.30 1016.34 1016.38 1016.50 1016.70 1016.86 1016.94 1017.14 1017.02 1017.02 1017.02 1017.22 1017.38 1017.34 1017.30 1017.46 1017.66 1017.54 1017.78 1017.78 1017.90 1018.10 1018.34 1018.30 1018.58 1018.66 1018.82 1018.86 1018.94 1018.98 1019.14 1019.34 1019.46 1019.66
1011.14 1010.74 1010.54 1010.46 1010.70 1010.82 1011.06 1011.46 1011.74 1011.62 1011.82 1012.10 1012.22 1012.54 1012.86 1013.06 1013.06 1013.54 1013.94 1014.30 1014.74 1015.06 1015.30 1015.30 1015.38 1015.50 1015.58 1015.86 1016.06 1016.10 1016.18 1016.18 1016.18 1016.34 1016.42 1016.50 1016.70 1016.70 1016.90 1016.98 1017.02 1016.98 1017.26 1017.38 1017.30 1017.30 1017.34 1017.46 1017.82 1017.90 1017.98 1018.18 1018.22 1018.38 1018.50 1018.66 1018.74 1018.82 1018.86 1019.06 1019.30 1019.22 1019.38
1011.02 1010.78 1010.58 1010.74 1011.02 1011.10 1011.30 1011.58 1011.74 1011.50 1011.70 1011.74 1011.90 1011.98 1012.34 1012.74 1012.82 1013.22 1013.62 1013.82 1014.10 1014.62 1014.70 1014.82 1014.90 1015.06 1015.22 1015.38 1015.58 1015.66 1015.82 1015.94 1016.02 1015.98 1015.98 1016.10 1016.14 1016.30 1016.66 1016.86 1016.86 1016.86 1016.90 1016.90 1016.94 1017.18 1017.26 1017.54 1017.74 1017.90 1018.02 1018.02 1018.14 1018.30 1018.42 1018.46 1018.54 1018.62 1018.78 1018.94 1019.30 1019.14 1019.30
1011.38 1011.46 1011.38 1010.90 1011.02 1010.98 1011.10 1011.30 1011.42 1011.30 1011.38 1011.70 1011.90 1012.10 1012.14 1012.38 1012.54 1013.02 1013.30 1013.62 1013.86 1013.98 1014.18 1014.46 1014.66 1014.86 1015.18 1015.14 1015.18 1015.30 1015.42 1015.54 1015.66 1015.66 1015.74 1015.94 1016.14 1016.30 1016.50 1016.42 1016.54 1016.54 1016.70 1016.78 1016.74 1017.02 1017.18 1017.38 1017.58 1017.74 1017.98 1017.98 1018.02 1018.10 1018.22 1018.42 1018.38 1018.46 1018.70 1018.90 1019.10 1019.06 1019.14
1011.46 1011.74 1012.02 1011.26 1010.90 1010.94 1010.94 1011.18 1011.26 1011.06 1010.98 1011.26 1011.50 1011.70 1011.82 1012.14 1012.38 1012.54 1012.78 1013.34 1013.46 1013.94 1014.10 1014.34 1014.34 1014.62 1014.86 1014.82 1015.02 1015.06 1015.42 1015.46 1015.50 1015.66 1015.50 1015.74 1015.90 1015.94 1016.10 1016.14 1016.14 1016.26 1016.26 1016.38 1016.74 1016.78 1017.22 1017.34 1017.38 1017.42 1017.62 1017.70 1017.86 1017.86 1018.02 1018.26 1018.34 1018.26 1018.50 1018.82 1019.06 1019.06 1019.10
1011.50 1011.70 1011.78 1011.22 1010.94 1010.82 1010.86 1010.94 1011.02 1010.90 1010.78 1011.02 1011.50 1011.86 1011.90 1011.86 1012.06 1012.26 1012.54 1012.86 1013.18 1013.46 1013.74 1013.94 1014.10 1014.38 1014.58 1014.58 1014.70 1014.86 1015.14 1015.18 1015.22 1015.30 1015.38 1015.58 1015.66 1015.78 1015.82 1015.90 1016.10 1016.02 1016.06 1016.46 1016.50 1016.54 1016.90 1017.14 1017.06 1017.22 1017.34 1017.50 1017.66 1017.74 1017.74 1018.02 1018.22 1018.18 1018.34 1018.78 1019.02 1019.10 1018.94
1011.46 1011.34 1011.02 1010.78 1010.66 1010.86 1011.06 1010.86 1010.86 1010.94 1011.02 1011.02 1011.34 1011.70 1011.70 1011.74 1011.90 1012.02 1012.18 1012.62 1012.90 1013.34 1013.54 1013.38 1013.58 1013.82 1014.18 1014.38 1014.70 1014.82 1014.78 1014.82 1015.06 1015.14 1015.34 1015.50 1015.50 1015.70 1015.70 1015.86 1015.94 1015.98 1016.18 1016.30 1016.34 1016.42 1016.54 1016.86 1016.86 1017.10 1017.26 1017.46 1017.58 1017.70 1017.94 1018.18 1018.26 1018.22 1018.34 1018.62 1018.86 1019.06 1019.02
1011.30 1011.42 1011.10 1010.38 1010.26 1010.62 1011.14 1011.34 1010.98 1011.02 1011.26 1011.26 1011.38 1011.62 1011.62 1011.50 1011.58 1011.74 1011.94 1012.26 1012.58 1013.10 1013.18 1013.14 1013.26 1013.54 1013.94 1014.14 1014.38 1014.46 1014.62 1014.86 1014.82 1014.98 1015.18 1015.42 1015.50 1015.62 1015.70 1015.78 1015.82 1015.86 1016.10 1016.34 1016.30 1016.42 1016.62 1016.78 1016.82 1016.98 1017.30 1017.54 1017.66 1017.86 1018.02 1018.22 1018.30 1018.26 1018.26 1018.46 1018.70 1018.94 1019.06
1010.98 1011.14 1011.06 1010.78 1010.62 1010.70 1011.06 1011.26 1011.38 1011.34 1011.50 1011.42 1011.30 1011.34 1011.42 1011.38 1011.46 1011.54 1011.90 1012.10 1012.42 1012.70 1012.74 1012.82 1012.94 1013.38 1013.70 1013.98 1014.22 1014.34 1014.46 1014.70 1014.74 1014.94 1015.10 1015.22 1015.18 1015.42 1015.34 1015.78 1015.86 1015.82 1015.98 1016.14 1016.62 1016.58 1016.54 1016.82 1016.82 1017.06 1017.34 1017.58 1017.74 1017.94 1018.02 1018.10 1018.18 1018.30 1018.30 1018.26 1018.38 1018.62 1018.82
1011.34 1011.38 1011.46 1011.26 1010.94 1010.86 1011.22 1011.18 1011.22 1011.06 1011.22 1011.50 1011.30 1011.30 1011.38 1011.34 1011.38 1011.50 1011.74 1011.98 1012.02 1012.46 1012.66 1012.74 1012.78 1013.18 1013.58 1013.82 1014.18 1014.38 1014.46 1014.54 1014.66 1014.82 1014.94 1015.06 1015.10 1015.26 1015.38 1015.46 1015.78 1016.02 1016.02 1015.98 1016.54 1016.66 1016.66 1016.70 1016.86 1017.18 1017.42 1017.46 1017.54 1017.70 1017.86 1017.86 1017.98 1018.14 1018.26 1018.26 1018.34 1018.46 1018.50
1011.38 1011.50 1011.66 1011.58 1011.30 1010.90 1010.90 1011.18 1011.22 1011.26 1011.18 1011.42 1011.30 1011.10 1011.14 1011.30 1011.42 1011.58 1011.74 1011.98 1011.98 1012.14 1012.42 1012.58 1012.82 1013.06 1013.46 1013.70 1014.10 1014.38 1014.46 1014.50 1014.62 1014.62 1014.70 1014.86 1014.98 1014.90 1015.18 1015.70 1015.78 1015.94 1016.10 1016.10 1016.38 1016.78 1016.94 1016.78 1016.86 1017.02 1017.22 1017.38 1017.50 1017.66 1017.82 1017.86 1017.86 1017.98 1018.10 1018.22 1018.22 1018.38 1018.62
1011.86 1011.98 1011.86 1011.66 1011.54 1011.10 1010.98 1011.02 1010.98 1011.14 1011.26 1011.26 1011.22 1010.94 1010.98 1011.06 1011.18 1011.46 1011.66 1011.94 1011.94 1012.02 1012.30 1012.46 1012.74 1013.06 1013.42 1013.74 1014.06 1014.34 1014.50 1014.42 1014.38 1014.50 1014.54 1014.62 1014.86 1014.90 1014.90 1015.18 1015.70 1015.82 1015.90 1016.06 1016.42 1016.58 1016.74 1016.86 1016.98 1016.94 1017.10 1017.26 1017.38 1017.42 1017.54 1017.82 1017.98 1017.98 1018.06 1018.06 1018.14 1018.34 1018.58
1014.30 1013.70 1013.02 1012.78 1011.70 1010.78 1010.74 1010.86 1010.90 1010.98 1011.22 1011.26 1011.22 1011.30 1011.18 1011.14 1011.14 1011.18 1011.42 1011.54 1011.74 1011.94 1012.22 1012.30 1012.70 1013.14 1013.42 1013.78 1014.14 1014.30 1014.30 1014.34 1014.30 1014.38 1014.50 1014.62 1014.82 1015.02 1014.98 1015.02 1015.34 1015.70 1015.78 1016.02 1016.18 1016.22 1016.34 1016.66 1016.86 1017.02 1017.10 1017.14 1017.26 1017.38 1017.46 1017.74 1017.98 1017.98 1018.06 1018.18 1018.22 1018.30 1018.50
1014.38 1014.74 1014.50 1013.86 1012.62 1011.54 1010.90 1010.62 1010.62 1010.82 1010.98 1011.14 1011.26 1011.38 1011.50 1011.54 1011.58 1011.62 1011.70 1011.90 1012.02 1012.18 1012.30 1012.42 1012.82 1013.18 1013.46 1013.82 1014.06 1014.10 1014.18 1014.30 1014.42 1014.54 1014.70 1014.82 1014.90 1015.02 1015.06 1015.10 1014.98 1015.34 1015.70 1015.82 1015.94 1015.94 1015.98 1016.34 1016.78 1016.98 1017.14 1017.34 1017.42 1017.46 1017.50 1017.66 1017.70 1017.90 1017.90 1017.90 1018.14 1018.34 1018.34
1014.50 1014.58 1014.10 1013.94 1013.90 1013.22 1011.94 1010.66 1010.54 1010.62 1010.86 1011.06 1011.14 1011.30 1011.46 1011.58 1011.66 1011.70 1011.86 1012.10 1012.34 1012.46 1012.42 1012.58 1013.18 1013.50 1013.70 1014.02 1014.06 1014.46 1014.46 1014.58 1014.66 1014.82 1015.10 1015.02 1015.06 1015.06 1015.18 1015.26 1015.22 1015.30 1015.46 1015.58 1015.70 1015.78 1015.78 1015.90 1016.34 1016.62 1016.74 1017.06 1017.30 1017.70 1017.74 1017.94 1018.50 1018.70 1018.42 1018.18 1018.14 1018.10 1018.30
1014.22 1013.94 1014.46 1013.98 1013.02 1013.06 1013.38 1012.78 1011.46 1010.94 1011.06 1011.14 1011.18 1011.34 1011.50 1011.66 1011.74 1011.90 1012.22 1012.22 1012.34 1012.38 1012.42 1012.82 1013.50 1013.82 1014.06 1014.14 1014.58 1015.06 1015.78 1016.66 1017.14 1016.62 1016.10 1015.90 1015.98 1015.74 1015.38 1015.30 1015.42 1015.58 1015.62 1015.58 1015.66 1015.74 1015.74 1016.06 1016.26 1016.26 1016.26 1016.50 1017.10 1017.42 1017.94 1018.54 1018.98 1018.90 1018.86 1018.58 1018.42 1018.38 1018.22
1011.74 1012.66 1013.26 1013.30 1013.06 1013.30 1013.14 1013.70 1013.98 1013.22 1012.26 1011.98 1012.10 1011.90 1011.78 1011.86 1012.18 1012.42 1012.38 1012.50 1012.42 1012.42 1012.78 1013.06 1013.54 1014.10 1014.18 1014.30 1014.74 1015.22 1016.06 1016.30 1017.02 1017.90 1018.30 1017.94 1016.90 1016.30 1016.18 1016.06 1015.98 1016.06 1016.14 1016.14 1015.82 1015.86 1016.22 1016.38 1016.42 1016.58 1016.46 1016.50 1016.86 1017.74 1018.30 1018.90 1019.34 1019.26 1019.10 1018.86 1018.66 1018.54 1018.30
1011.22 1011.78 1012.98 1013.22 1013.34 1013.38 1013.46 1013.50 1013.66 1013.62 1013.14 1013.06 1013.26 1013.46 1013.54 1013.58 1013.74 1013.46 1012.94 1012.82 1012.70 1012.90 1013.10 1013.34 1013.58 1014.02 1014.46 1014.62 1014.94 1015.54 1015.98 1016.38 1016.94 1017.18 1017.18 1016.70 1015.98 1015.98 1016.34 1016.38 1016.30 1016.34 1016.34 1016.42 1016.38 1016.54 1016.70 1016.66 1016.94 1016.82 1016.82 1016.82 1017.50 1018.18 1018.74 1019.34 1019.66 1019.50 1019.26 1019.06 1018.86 1018.74 1018.62
1011.98 1012.10 1012.58 1012.86 1013.10 1013.50 1013.86 1013.70 1013.58 1013.90 1013.82 1013.50 1013.02 1012.98 1012.94 1013.22 1013.50 1013.38 1013.38 1013.30 1013.38 1013.34 1013.54 1013.78 1014.26 1014.90 1015.22 1015.66 1015.70 1015.98 1016.42 1016.50 1016.62 1017.10 1017.02 1016.66 1016.22 1016.34 1016.82 1016.74 1016.54 1016.50 1016.58 1016.74 1017.10 1018.02 1019.50 1019.54 1019.02 1018.42 1018.22 1018.10 1018.34 1018.86 1019.34 1019.78 1019.86 1019.50 1019.30 1019.18 1018.94 1018.70 1018.62
1012.14 1011.70 1011.82 1012.18 1012.26 1012.66 1013.18 1013.18 1013.70 1013.62 1013.58 1013.14 1012.90 1012.90 1012.98 1013.30 1013.18 1013.46 1013.82 1013.42 1013.46 1013.62 1014.10 1014.54 1014.58 1014.66 1014.94 1015.34 1015.62 1015.98 1015.94 1016.22 1016.66 1017.18 1016.86 1016.58 1016.38 1016.34 1016.54 1016.82 1016.78 1016.70 1016.70 1016.86 1017.34 1018.14 1018.86 1019.10 1018.74 1018.70 1018.62 1018.38 1018.54 1019.06 1019.58 1019.82 1019.78 1019.46 1019.34 1019.26 1019.02 1018.82 1018.50
1012.06 1011.82 1011.70 1011.70 1011.58 1011.98 1012.02 1012.26 1012.66 1012.98 1013.26 1013.30 1012.74 1012.86 1013.22 1013.34 1013.46 1013.78 1013.78 1013.58 1013.70 1013.66 1014.46 1014.66 1014.82 1014.90 1015.02 1015.18 1015.70 1015.78 1015.70 1015.50 1016.02 1016.58 1016.70 1016.62 1016.50 1016.58 1016.70 1016.74 1016.78 1016.74 1016.66 1017.02 1017.62 1018.62 1019.10 1018.98 1018.66 1018.34 1018.18 1018.42 1018.78 1019.18 1019.58 1019.78 1019.90 1019.58 1019.34 1019.26 1019.10 1018.70 1018.42
1012.38 1012.02 1011.98 1011.98 1011.86 1011.90 1012.06 1012.10 1012.10 1012.22 1012.54 1012.90 1012.94 1012.74 1012.82 1013.06 1013.50 1013.90 1014.10 1014.14 1013.90 1014.02 1014.38 1014.74 1014.86 1014.86 1015.06 1015.50 1015.30 1015.34 1015.58 1015.46 1015.74 1016.14 1016.34 1016.62 1016.82 1016.90 1016.74 1016.70 1016.74 1016.90 1016.86 1017.22 1017.54 1018.42 1018.50 1018.42 1018.42 1018.42 1018.38 1018.38 1018.74 1018.98 1019.46 1019.90 1020.10 1019.70 1019.42 1019.26 1019.10 1018.86 1018.74
1013.58 1012.86 1012.66 1012.62 1012.70 1012.86 1012.70 1012.82 1012.82 1012.70 1012.78 1013.02 1013.46 1013.42 1013.30 1013.38 1013.62 1014.02 1014.38 1014.38 1014.38 1014.34 1014.66 1014.70 1014.66 1014.74 1015.06 1015.26 1015.14 1015.18 1015.42 1015.62 1016.02 1016.06 1016.22 1016.74 1017.30 1017.22 1017.02 1016.98 1017.18 1017.22 1017.18 1017.42 1017.66 1018.06 1018.26 1018.54 1018.70 1018.94 1019.02 1019.10 1019.26 1019.34 1019.62 1019.94 1020.10 1019.90 1019.50 1019.30 1019.22 1018.94 1018.70
1014.86 1013.98 1013.70 1013.26 1013.10 1013.18 1013.22 1013.10 1013.22 1013.50 1013.70 1013.86 1013.86 1013.58 1013.62 1013.58 1013.78 1014.18 1014.58 1014.90 1014.86 1015.18 1015.30 1015.22 1014.94 1014.58 1014.50 1014.70 1014.82 1014.90 1015.34 1015.50 1015.86 1016.02 1016.30 1016.50 1016.66 1016.78 1016.94 1016.98 1017.14 1017.34 1017.50 1017.66 1017.82 1018.14 1018.30 1018.62 1019.10 1019.34 1019.46 1019.54 1019.74 1019.86 1019.98 1020.14 1020.26 1020.18 1019.82 1019.54 1019.38 1019.26 1019.10
1014.66 1014.30 1014.14 1013.82 1013.66 1013.42 1013.74 1013.86 1013.82 1014.02 1014.10 1014.18 1013.98 1013.90 1013.98 1014.26 1014.58 1015.02 1015.10 1015.14 1015.34 1015.70 1015.58 1015.34 1015.10 1014.94 1014.94 1014.78 1014.82 1015.06 1015.46 1015.70 1016.10 1016.50 1016.46 1016.46 1016.74 1016.94 1017.34 1017.46 1017.58 1017.50 1017.62 1018.02 1018.26 1018.50 1018.90 1019.22 1019.46 1019.62 1019.78 1019.94 1020.06 1020.10 1020.14 1020.22 1020.34 1020.34 1020.02 1019.86 1019.86 1019.74 1019.58
1014.94 1014.54 1014.14 1013.94 1013.90 1013.94 1014.06 1014.02 1014.22 1014.06 1014.14 1014.26 1014.26 1014.30 1014.46 1014.74 1015.22 1015.54 1015.54 1015.58 1015.78 1015.82 1015.58 1015.58 1015.58 1015.54 1015.62 1015.66 1015.66 1015.74 1015.86 1016.06 1016.18 1016.30 1016.66 1016.78 1016.98 1017.38 1017.70 1017.74 1017.78 1017.86 1017.94 1018.10 1018.38 1018.82 1019.30 1019.66 1019.86 1020.10 1020.38 1020.54 1020.62 1020.54 1020.38 1020.26 1020.18 1020.18 1020.14 1020.22 1020.30 1020.18 1019.90
1016.22 1016.06 1015.86 1015.06 1014.54 1014.14 1014.10 1014.54 1014.74 1014.78 1014.86 1014.70 1014.66 1014.90 1015.06 1015.26 1015.70 1015.90 1015.86 1016.06 1016.06 1015.74 1015.70 1015.78 1015.86 1015.98 1016.06 1016.18 1016.22 1016.22 1016.22 1016.22 1016.30 1016.50 1016.62 1016.98 1017.26 1017.58 1017.98 1018.06 1018.14 1018.26 1018.38 1018.62 1018.86 1019.18 1019.50 1019.90 1020.18 1020.50 1020.78 1020.82 1020.82 1020.66 1020.50 1020.38 1020.26 1020.14 1020.26 1020.46 1020.50 1020.38 1020.18
1016.30 1016.18 1015.86 1015.26 1014.86 1014.82 1015.06 1015.50 1015.42 1015.42 1015.38 1015.26 1015.22 1015.34 1015.50 1015.70 1016.06 1016.18 1016.34 1016.50 1015.98 1015.78 1015.82 1016.02 1016.22 1016.34 1016.50 1016.62 1016.66 1016.62 1016.66 1016.66 1016.66 1016.78 1016.98 1017.22 1017.38 1017.66 1018.02 1018.22 1018.34 1018.54 1018.74 1018.94 1019.18 1019.54 1019.86 1020.14 1020.22 1020.46 1020.78 1020.94 1020.86 1020.58 1020.46 1020.42 1020.38 1020.30 1020.34 1020.46 1020.54 1020.50 1020.38
1016.86 1016.30 1015.90 1015.78 1015.66 1015.78 1015.94 1016.10 1016.14 1016.02 1015.98 1015.98 1015.94 1015.82 1015.82 1015.86 1016.18 1016.38 1016.58 1016.30 1015.90 1016.02 1016.06 1016.14 1016.22 1016.50 1016.74 1016.94 1016.98 1016.94 1016.90 1016.98 1017.06 1017.06 1017.10 1017.18 1017.26 1017.70 1018.02 1018.30 1018.42 1018.78 1018.86 1019.06 1019.38 1019.62 1019.90 1020.02 1020.14 1020.42 1020.58 1020.62 1020.66 1020.46 1020.34 1020.34 1020.30 1020.42 1020.54 1020.54 1020.62 1020.90 1020.82
1016.34 1016.30 1016.38 1016.26 1016.18 1016.06 1016.14 1016.22 1016.30 1016.42 1016.54 1016.50 1016.30 1016.34 1016.34 1016.26 1016.18 1016.54 1016.46 1016.10 1016.02 1015.98 1016.10 1016.18 1016.30 1016.46 1016.70 1016.90 1017.10 1017.22 1017.22 1017.46 1017.62 1017.62 1017.46 1017.38 1017.50 1017.78 1017.94 1018.18 1018.38 1018.66 1018.82 1018.94 1019.22 1019.46 1019.74 1020.02 1020.22 1020.50 1020.66 1020.74 1020.62 1020.62 1020.46 1020.42 1020.42 1020.62 1020.74 1020.86 1020.90 1020.94 1020.98
1017.06 1016.82 1016.70 1016.74 1016.94 1016.70 1016.54 1016.62 1016.78 1016.86 1016.94 1016.98 1016.70 1016.62 1016.66 1016.66 1016.58 1016.50 1016.34 1016.34 1016.22 1016.14 1016.14 1016.30 1016.42 1016.50 1016.50 1016.70 1016.94 1017.10 1017.34 1017.58 1017.70 1017.90 1018.02 1018.18 1018.14 1018.10 1018.22 1018.46 1018.98 1019.30 1019.42 1019.38 1019.30 1019.30 1019.58 1019.82 1020.06 1020.22 1020.42 1020.62 1020.74 1020.70 1020.66 1020.62 1020.82 1021.14 1021.42 1021.46 1021.38 1021.34 1021.30
1017.30 1017.10 1016.82 1016.70 1016.78 1016.78 1016.86 1016.86 1017.02 1017.14 1017.22 1017.34 1017.02 1016.86 1016.90 1016.90 1016.82 1016.62 1016.46 1016.30 1016.42 1016.42 1016.46 1016.46 1016.46 1016.66 1016.86 1016.86 1016.82 1016.82 1016.98 1017.30 1017.46 1017.86 1018.42 1018.94 1019.10 1019.30 1019.34 1019.10 1019.42 1019.98 1020.38 1020.54 1020.46 1020.14 1019.62 1019.74 1019.98 1020.06 1020.10 1020.34 1020.38 1020.50 1020.74 1021.22 1021.46 1021.70 1021.94 1022.06 1021.98 1021.86 1021.66
1017.62 1017.46 1017.30 1017.30 1017.30 1017.26 1017.42 1017.46 1017.46 1017.34 1017.26 1017.34 1017.22 1017.10 1017.22 1017.50 1017.30 1016.98 1017.06 1016.94 1016.78 1016.70 1016.86 1016.94 1016.90 1016.86 1016.86 1016.82 1016.90 1017.02 1017.02 1017.18 1017.30 1017.90 1018.62 1019.22 1019.70 1020.22 1020.82 1020.78 1020.06 1020.30 1020.78 1021.18 1021.26 1020.98 1020.42 1020.06 1020.18 1020.30 1020.58 1020.66 1020.82 1020.70 1021.22 1021.54 1021.98 1022.42 1022.70 1022.58 1022.62 1022.42 1022.34
1017.94 1017.94 1017.82 1017.62 1017.54 1017.62 1017.62 1017.66 1017.58 1017.50 1017.38 1017.38 1017.34 1017.58 1017.86 1017.78 1017.78 1017.74 1017.58 1017.46 1017.26 1017.10 1017.18 1017.30 1017.26 1017.34 1017.38 1017.38 1017.38 1017.30 1017.42 1017.38 1017.50 1018.10 1018.54 1019.10 1019.74 1020.34 1020.94 1021.58 1021.54 1021.26 1021.02 1021.34 1021.74 1021.62 1021.18 1020.74 1020.94 1020.94 1020.90 1021.26 1021.74 1021.50 1021.18 1021.78 1022.34 1022.94 1022.90 1022.50 1022.54 1022.70 1022.70
1018.10 1018.30 1018.26 1018.02 1018.06 1018.14 1018.22 1018.14 1017.98 1017.78 1017.50 1017.30 1017.22 1017.54 1017.82 1018.02 1018.06 1018.02 1018.10 1018.10 1018.02 1017.70 1017.50 1017.42 1017.70 1017.74 1017.78 1017.74 1017.86 1017.90 1017.82 1017.70 1017.94 1018.26 1018.82 1019.18 1019.54 1020.14 1020.66 1021.10 1021.70 1022.18 1022.34 1022.22 1022.06 1021.62 1021.38 1021.38 1021.38 1021.38 1021.34 1021.38 1021.90 1022.54 1022.50 1022.54 1022.74 1022.66 1022.50 1022.34 1022.42 1022.50 1022.42
1018.02 1018.26 1018.22 1018.18 1018.14 1018.26 1018.34 1018.38 1018.22 1018.02 1017.82 1017.66 1017.46 1017.34 1017.54 1018.10 1018.38 1018.46 1018.38 1018.34 1018.34 1018.30 1018.14 1017.94 1017.90 1018.02 1018.06 1018.10 1018.18 1018.14 1018.06 1018.10 1018.26 1018.46 1018.90 1019.30 1019.54 1020.02 1020.38 1020.74 1021.26 1021.78 1022.30 1022.46 1022.26 1022.06 1021.78 1021.70 1021.78 1021.86 1021.86 1021.90 1021.90 1022.06 1022.70 1022.86 1022.66 1022.62 1022.50 1022.46 1022.58 1022.62 1022.62
Wind_Speed
16 16 14 10 12 14 13 11 11 11 11 12 13 14 13 13 12 10 12 11 12 12 12 11 10 9 9 8 8 7 5 7 6 7 5 5 4 5 6 5 6 4 6 6 5 5 6 5 8 6 7 6 4 4 3 3 3 3 2 3 2 1 2
13 14 15 14 13 13 15 12 10 12 12 12 11 11 10 13 12 12 11 12 12 13 13 12 11 10 9 8 8 8 8 7 7 6 6 4 4 3 5 5 5 4 4 5 5 4 4 4 3 4 6 5 5 5 5 4 3 3 4 3 3 3 3
10 10 12 12 14 13 14 15 12 13 13 13 13 13 11 11 12 11 12 13 13 13 12 12 11 11 9 9 8 9 9 9 8 9 8 8 8 8 6 4 5 5 5 4 3 5 4 6 4 4 4 5 6 5 4 4 4 3 2 3 3 3 2
9 9 10 12 13 11 13 12 13 14 14 14 13 15 12 10 13 11 13 14 14 14 13 13 13 12 11 10 10 8 8 8 8 8 8 7 9 8 7 5 5 6 5 6 6 6 7 5 6 4 5 4 3 6 5 5 5 4 3 3 3 3 2
8 3 9 10 11 10 12 12 13 11 15 15 14 11 13 13 13 13 14 14 15 15 15 14 12 11 9 10 9 9 9 10 8 7 8 7 6 6 6 8 8 7 6 7 5 4 3 5 6 4 4 4 4 5 4 4 4 5 3 4 3 3 3
10 3 3 8 10 11 13 15 17 16 14 16 16 14 13 15 14 16 15 14 14 14 14 13 13 12 11 12 10 10 9 8 7 6 6 8 6 8 8 7 8 7 8 7 7 6 5 5 6 6 7 7 6 7 6 6 5 5 4 3 3 3 4
7 7 7 5 10 10 13 13 15 13 13 14 13 13 13 15 15 15 14 16 15 14 15 15 14 13 10 10 9 10 11 11 9 9 9 9 9 8 8 7 6 7 7 5 6 6 8 6 5 6 7 7 5 6 6 4 4 4 4 4 3 2 2
8 10 13 10 7 8 9 12 15 14 12 13 12 11 14 14 14 15 15 12 12 12 13 15 14 12 10 9 9 11 12 12 10 10 8 10 10 8 7 7 5 5 5 8 6 6 8 7 6 5 5 6 5 4 4 3 3 4 3 3 3 4 4
6 2 10 10 9 8 4 5 11 12 12 12 14 14 14 14 13 13 14 14 11 11 10 11 11 12 10 10 9 9 10 10 11 10 10 11 8 11 8 7 7 5 5 6 8 6 5 6 7 5 5 3 3 2 3 2 3 3 3 4 4 4 4
9 5 2 6 12 10 10 5 6 9 10 9 11 11 13 11 11 11 9 12 13 12 12 14 9 11 10 8 11 13 12 10 10 12 12 11 10 12 10 8 7 6 7 6 1 6 4 4 5 6 4 4 3 3 3 4 5 4 4 3 3 3 3
9 8 7 5 8 12 13 9 7 4 2 4 7 10 9 8 9 10 8 10 10 9 11 8 8 9 11 9 9 11 11 12 12 11 11 11 10 11 10 9 8 6 8 7 6 2 5 7 5 3 4 6 6 5 5 5 5 4 5 4 4 4 4
8 8 6 6 6 10 11 10 6 6 3 2 4 9 7 6 5 5 9 10 8 8 9 6 10 9 10 10 8 9 10 10 11 12 12 12 11 11 10 9 8 8 7 6 4 4 4 6 6 5 5 4 5 6 4 4 4 4 4 4 3 4 4
8 8 8 8 7 7 9 9 10 7 10 6 4 7 6 5 5 5 9 10 8 8 8 7 7 9 9 11 10 8 9 8 8 9 11 10 10 9 9 9 9 8 8 8 7 7 7 6 4 6 7 5 4 6 5 4 5 3 3 3 4 2 1
5 5 2 6 10 12 13 13 12 11 10 9 5 6 6 5 5 7 9 10 9 9 8 8 6 8 9 9 9 8 9 7 7 9 7 7 6 6 8 11 11 9 7 6 7 8 8 8 7 7 7 6 6 4 4 3 3 2 3 3 4 3 3
4 3 5 8 12 11 13 14 12 12 11 8 8 7 5 5 6 6 7 8 8 8 7 8 6 7 7 8 8 8 8 6 6 5 4 4 6 6 5 4 10 10 8 7 8 8 8 7 7 6 5 5 5 5 6 6 4 3 3 4 4 2 4
12 12 9 8 8 12 11 12 13 12 11 10 10 8 7 6 5 4 4 5 5 5 4 3 6 6 7 8 7 6 6 6 5 5 4 4 3 4 5 5 4 12 11 10 9 7 7 9 9 9 8 7 6 7 6 5 4 4 4 6 3 4 3
9 11 12 10 9 10 5 9 11 11 10 9 9 9 8 7 6 6 6 6 5 5 5 5 3 4 1 1 3 3 2 4 4 4 4 2 0 3 3 3 4 2 3 6 8 6 4 4 9 11 10 9 8 6 5 3 5 8 7 5 3 3 4
14 14 14 13 10 7 8 11 3 9 9 9 8 8 6 6 7 6 6 6 6 6 5 5 6 4 4 3 1 5 5 8 14 12 7 6 7 6 3 2 2 3 3 2 3 1 2 3 3 3 4 7 9 7 6 5 7 7 7 6 6 5 2
9 8 11 8 7 7 5 3 8 11 8 5 4 2 6 5 5 5 4 4 4 4 5 5 6 5 5 6 2 6 8 7 3 5 6 5 6 3 5 5 5 5 6 5 2 1 2 2 2 3 3 4 3 7 7 6 8 7 7 6 7 7 5
3 9 9 8 8 5 5 6 5 1 4 6 3 7 11 13 10 9 5 3 0 4 4 4 4 4 5 3 3 6 7 6 4 3 3 5 7 5 1 3 1 2 2 4 6 4 2 3 4 3 2 2 7 9 8 6 8 7 7 6 5 5 4
3 7 8 10 12 9 5 4 6 10 7 2 3 6 6 5 5 1 2 2 1 1 1 2 5 3 2 1 4 5 4 5 7 5 5 4 7 3 1 4 1 1 0 1 3 8 9 9 6 6 8 9 9 8 8 6 10 8 8 8 6 6 2
6 5 9 8 11 11 6 6 5 4 7 2 3 7 7 4 2 2 3 2 2 1 3 4 1 2 1 2 2 6 5 8 7 8 6 7 7 5 5 5 4 4 4 3 4 8 5 2 3 4 5 6 9 8 7 6 10 8 10 10 9 7 3
5 8 9 8 9 9 8 7 8 8 7 3 3 4 6 6 2 2 6 5 4 3 3 2 1 1 3 2 4 9 12 9 8 10 10 8 7 5 4 5 5 2 3 3 6 7 4 2 2 0 5 8 8 9 7 6 9 10 10 10 11 6 2
7 9 8 9 8 9 8 7 6 7 9 9 9 8 6 6 5 3 2 3 2 1 2 5 2 2 3 3 2 5 7 7 6 8 8 7 3 1 3 1 3 4 3 3 6 9 7 4 3 4 5 7 8 8 8 6 8 11 11 11 12 7 3
5 9 9 8 9 8 7 7 6 6 6 8 9 8 6 6 6 6 4 3 3 3 3 1 1 4 4 4 2 3 4 4 4 2 4 4 5 6 3 4 5 5 5 6 8 9 7 6 6 7 8 8 8 13 10 7 8 12 13 14 13 9 4
4 9 9 9 10 8 6 4 5 9 9 8 8 7 6 6 5 7 8 9 9 9 8 7 6 5 4 6 6 4 5 3 3 5 6 8 8 6 4 3 6 7 6 7 6 7 7 7 7 8 7 8 7 7 8 8 7 9 15 15 16 13 7
7 9 9 9 9 9 9 8 7 8 9 8 7 7 8 9 10 9 8 8 9 9 8 7 7 7 7 5 4 6 9 9 9 8 7 8 9 9 8 6 6 7 9 9 9 9 9 9 7 7 7 7 7 7 8 7 6 9 15 15 15 15 9
9 8 8 10 10 9 7 8 8 8 9 9 8 9 10 10 10 8 7 9 9 8 8 8 9 9 10 10 9 10 10 9 8 10 8 8 8 9 9 8 7 8 9 8 10 11 11 9 8 8 8 7 6 7 7 9 12 9 13 14 13 14 13
10 8 5 5 6 6 8 9 12 13 12 10 11 10 10 10 10 8 8 9 9 7 8 8 9 9 9 9 9 8 6 6 9 8 9 9 9 9 9 7 8 8 8 9 10 10 11 10 8 8 7 7 5 5 6 6 6 11 10 11 12 13 13
6 3 5 10 10 11 14 11 10 11 12 11 10 8 7 7 7 7 8 8 5 6 8 8 9 9 9 8 8 9 9 9 10 10 10 10 8 8 8 7 7 7 6 7 7 7 8 7 7 8 8 6 5 4 5 5 5 7 9 8 11 11 12
4 7 9 9 12 13 13 12 12 11 11 10 9 8 7 6 7 8 8 5 4 4 6 6 8 8 9 9 8 8 9 8 7 8 8 8 8 8 7 7 7 7 6 6 6 7 7 7 6 5 5 5 5 5 5 4 4 4 5 8 11 10 8
5 6 6 6 7 9 9 10 9 8 8 8 7 7 6 6 6 8 7 6 5 5 5 5 4 6 8 9 9 9 9 9 9 9 9 9 8 7 6 6 5 5 6 6 6 5 6 6 6 5 5 5 5 4 4 4 5 5 5 3 3 5 9
5 2 4 7 7 6 6 9 9 9 8 8 6 6 6 6 5 5 5 6 6 6 5 5 5 5 5 7 8 8 8 8 7 7 7 8 8 7 6 7 8 7 8 7 4 4 7 5 6 6 6 5 5 4 4 4 6 7 6 6 6 5 5
6 6 7 8 7 7 7 6 9 9 9 7 6 6 6 5 4 4 4 5 7 6 5 4 3 6 7 7 6 6 7 6 9 9 9 9 9 8 7 6 8 8 8 7 6 6 4 5 4 3 4 5 5 5 6 7 6 6 5 4 5 5 5
5 6 7 8 7 7 7 7 8 8 9 8 6 6 9 12 10 5 7 7 5 3 3 3 4 4 5 5 6 7 5 5 6 9 10 10 11 10 8 6 7 8 7 7 6 5 4 4 6 7 6 5 5 3 7 6 6 3 3 4 4 4 4
5 5 7 7 8 8 9 8 8 9 9 8 7 8 8 9 9 11 11 8 5 4 4 3 3 3 4 4 4 4 2 1 7 9 9 10 9 9 9 13 14 10 6 6 9 12 14 11 7 5 6 7 6 5 6 6 4 2 1 7 7 6 6
9 6 6 7 9 9 8 7 8 8 9 8 7 7 6 6 8 7 6 7 8 5 3 3 3 3 4 3 3 5 6 4 6 9 9 8 8 7 7 6 8 12 12 9 7 10 14 15 16 16 12 8 7 9 13 11 7 4 5 9 8 9 10
8 7 7 6 7 8 8 7 7 6 7 6 6 8 8 8 7 7 7 7 8 8 4 3 3 0 3 3 3 3 3 6 6 7 7 7 7 6 5 5 6 6 8 9 8 9 12 14 15 14 15 13 9 6 4 5 6 6 7 7 7 7 8
Wind_Direction
192 185 172 188 166 177 171 168 181 158 164 166 161 184 171 162 160 165 159 166 166 165 169 169 168 171 171 164 163 161 170 166 191 168 191 181 163 167 168 175 180 188 166 176 187 173 181 211 157 185 157 176 173 162 158 168 167 182 171 158 144 143 216
200 186 180 182 176 177 172 173 178 162 173 170 172 167 183 161 151 164 159 167 169 168 170 171 170 172 171 165 168 164 171 193 182 171 183 163 137 172 180 184 175 185 182 177 163 161 173 168 175 154 154 170 178 158 169 176 187 197 170 180 192 169 222
214 189 175 172 175 184 165 175 181 176 171 174 180 174 182 151 160 163 161 169 170 172 173 173 174 175 170 165 172 185 178 183 174 182 184 175 173 184 190 192 166 187 186 151 146 162 181 169 166 158 168 180 175 164 168 179 184 196 178 164 190 197 178
210 195 174 174 171 179 163 169 180 183 175 177 182 173 179 156 165 155 167 172 172 175 175 176 178 178 175 170 174 181 181 178 181 184 181 183 182 181 184 178 183 183 175 177 168 194 174 168 166 164 187 182 185 167 184 181 182 189 186 164 211 203 177
206 179 181 173 166 174 161 171 182 195 172 181 178 187 162 174 170 167 172 176 177 177 178 178 179 176 176 177 176 182 183 182 193 188 190 178 193 180 177 183 189 193 172 188 169 186 137 167 167 169 186 183 197 161 184 188 191 173 188 165 220 210 184
208 148 269 184 164 174 168 177 184 197 179 177 177 183 174 178 177 176 174 174 181 178 179 179 181 175 179 180 187 178 180 184 190 188 197 156 207 179 188 195 179 204 169 194 162 177 171 181 178 180 180 186 206 182 188 186 202 177 181 187 203 233 223
184 173 214 222 164 171 176 177 184 200 175 180 175 183 182 183 186 179 178 175 182 178 180 182 181 177 186 178 191 172 179 187 187 193 196 174 197 197 182 190 189 190 185 189 170 182 172 197 190 185 182 192 192 207 173 185 197 182 167 177 188 248 279
183 179 195 205 162 160 182 172 185 194 184 183 176 175 191 183 188 188 183 169 178 175 185 182 183 177 182 189 186 181 183 186 190 194 195 196 188 204 184 189 194 188 196 181 179 185 183 191 194 193 189 199 185 213 172 165 193 204 183 175 196 207 210
159 187 192 188 163 154 208 177 179 192 197 191 173 178 194 187 189 189 185 165 178 171 185 184 182 172 180 184 182 191 190 190 186 194 193 203 186 201 186 188 195 198 206 195 184 193 194 178 197 177 182 204 171 202 131 163 203 212 210 191 192 206 241
171 179 270 183 163 164 182 215 195 182 194 200 176 177 195 193 186 184 182 166 178 172 182 186 179 162 175 182 181 192 187 194 196 192 195 201 192 202 187 189 190 189 204 200 204 196 155 200 232 174 171 197 158 175 163 170 205 215 214 197 194 217 216
170 184 196 189 180 161 174 193 183 142 133 196 167 173 194 200 183 184 160 157 170 171 176 191 166 160 169 185 183 190 189 192 197 197 199 201 197 206 187 180 198 190 207 185 175 263 185 188 197 152 169 196 182 191 192 191 199 207 222 204 193 208 223
166 179 189 186 177 160 168 180 176 166 166 254 176 170 187 180 182 165 145 156 162 170 172 193 165 166 171 179 192 188 198 192 197 200 200 202 202 198 204 172 184 190 208 202 168 191 255 203 178 183 185 209 189 195 197 206 207 199 225 218 207 212 227
172 177 185 190 189 187 172 175 178 177 177 207 193 166 168 171 178 154 151 160 163 171 172 189 173 173 173 181 190 192 204 195 196 203 201 199 208 199 191 173 190 188 197 201 184 182 207 235 211 173 193 187 210 206 201 210 213 203 200 220 226 193 104
116 107 148 203 193 203 184 179 180 176 183 186 175 158 172 179 183 161 165 163 166 169 171 186 185 170 174 181 189 194 202 208 200 206 206 190 200 226 200 180 172 191 199 190 210 199 198 212 214 196 182 191 208 197 202 206 226 200 196 211 232 180 185
343 316 211 214 205 179 165 162 154 160 154 138 127 105 106 161 179 162 162 160 155 166 175 181 190 174 176 182 194 196 196 206 205 208 222 202 181 213 244 206 163 173 185 189 204 209 194 194 216 229 203 201 196 191 197 196 205 200 220 211 217 220 224
170 198 230 252 225 175 167 154 147 150 146 148 135 128 123 114 105 108 139 120 108 127 138 176 191 181 183 189 199 200 194 196 197 199 214 241 184 187 229 266 223 175 179 187 199 210 196 180 179 204 207 198 193 205 197 195 196 2 257 216 191 215 237
188 208 204 196 254 301 294 171 157 152 152 156 150 143 137 139 132 140 145 143 152 162 178 182 123 67 59 262 268 328 292 202 194 176 205 216 235 172 213 247 325 322 184 185 195 208 203 202 187 188 200 192 194 187 203 100 47 5 20 26 309 244 213
193 195 175 209 195 185 250 303 205 162 159 161 162 152 145 146 145 151 155 158 169 170 167 175 132 159 212 227 188 105 74 9 349 348 360 11 7 2 8 353 1 345 343 281 216 108 260 209 253 247 228 190 175 179 104 82 40 30 18 23 26 6 303
174 159 156 177 180 202 214 221 325 338 10 19 25 107 144 143 148 159 152 165 173 178 175 186 149 169 199 209 196 84 66 61 41 40 31 7 303 335 11 18 21 16 359 346 340 308 224 270 225 234 257 260 181 114 84 74 27 26 29 24 26 13 341
88 119 112 120 98 68 138 150 227 96 102 119 111 7 21 8 359 354 6 14 247 196 186 203 201 190 176 191 139 86 97 100 114 161 199 215 236 234 7 300 356 348 359 346 335 323 306 255 307 289 260 279 78 92 75 66 17 8 22 27 21 4 346
100 115 110 98 101 96 61 78 138 132 109 120 124 108 116 143 225 223 47 6 3 45 20 38 31 8 347 329 100 102 134 153 167 180 152 200 241 250 175 271 319 231 229 24 38 41 26 25 358 348 23 32 66 65 68 46 15 18 9 9 353 346 325
139 134 122 116 106 113 127 113 52 46 113 199 165 144 151 150 186 111 313 281 282 85 33 41 137 193 158 181 157 151 181 191 182 187 189 198 208 207 196 213 202 215 186 138 96 87 85 37 351 358 41 66 90 95 68 44 16 17 21 3 352 323 258
114 113 109 97 89 81 82 77 100 108 121 192 215 172 132 127 210 229 236 235 233 234 134 264 264 221 213 192 149 167 180 207 180 173 181 197 199 199 216 214 181 142 67 94 135 118 110 62 68 128 126 110 100 95 83 55 18 29 27 19 358 342 348
88 93 88 88 91 93 85 77 70 56 70 80 82 69 83 102 96 102 58 2 333 358 122 163 194 215 100 64 177 120 170 204 179 176 169 178 158 206 227 202 42 51 52 48 108 136 167 144 89 42 50 85 96 95 89 69 32 32 35 27 13 346 341
74 92 96 99 97 92 81 64 55 75 57 70 79 76 73 87 101 101 105 107 85 75 75 42 177 121 133 150 135 149 127 193 244 177 161 166 173 220 205 137 102 83 77 85 94 117 135 133 88 77 65 63 74 83 80 70 42 33 39 36 26 12 329
27 80 85 92 90 85 87 84 87 76 75 67 63 76 90 102 90 77 81 70 65 62 58 54 43 56 87 135 166 132 140 141 90 106 94 104 96 85 68 81 95 96 89 74 90 117 122 111 91 79 69 64 64 66 68 68 51 38 44 41 36 24 37
84 86 95 102 103 99 86 80 76 81 74 61 52 66 74 69 70 73 74 75 75 64 55 42 30 39 42 48 102 120 88 85 95 85 94 97 93 90 77 61 80 89 93 94 88 86 77 78 74 78 76 70 69 78 73 70 69 51 49 47 42 35 36
42 42 55 70 88 99 104 103 106 95 84 76 67 64 63 64 64 57 66 78 79 76 71 63 62 63 59 56 55 74 91 98 99 106 106 95 89 88 90 93 87 81 82 85 90 93 94 92 88 82 79 73 71 74 78 71 70 66 54 52 47 45 43
6 12 0 75 100 102 86 69 64 74 73 66 67 71 72 75 71 61 61 66 70 79 80 70 67 67 64 60 57 55 62 77 86 87 95 96 98 98 95 89 86 82 84 92 100 102 102 97 98 96 89 86 75 71 74 68 65 66 65 57 52 47 46
10 40 49 56 53 55 56 69 70 66 62 57 54 62 81 82 88 85 80 63 50 74 87 87 83 74 68 60 57 65 65 69 86 94 96 96 95 96 100 95 89 88 88 95 99 104 105 109 115 113 111 113 122 110 96 99 87 72 78 69 59 53 49
45 17 69 70 71 61 58 59 59 59 59 58 55 49 56 68 80 92 93 91 91 80 81 92 97 97 90 79 71 72 82 84 81 80 89 95 97 101 105 111 117 117 125 118 118 117 118 120 117 107 120 117 115 125 123 124 112 96 78 79 71 56 45
116 116 90 90 82 88 90 77 73 75 84 80 74 71 53 42 58 78 83 105 108 98 90 89 103 110 109 106 102 96 87 68 52 41 50 67 72 67 62 67 91 112 126 123 114 114 113 125 124 125 120 119 119 108 112 104 95 79 60 41 98 93 58
54 58 123 104 112 119 108 107 101 91 72 71 82 86 81 70 58 59 78 85 80 90 102 99 81 63 75 108 122 122 119 110 98 102 82 45 40 48 62 68 51 42 31 29 52 115 137 131 144 142 137 134 139 142 141 123 84 63 49 26 19 29 39
82 64 60 78 76 87 96 95 97 91 89 71 57 75 88 85 71 60 34 80 87 74 42 47 81 124 143 130 134 127 98 99 120 99 74 62 52 38 15 37 66 51 44 31 11 354 32 92 76 83 127 145 142 152 117 81 70 62 55 35 24 22 27
79 90 103 110 111 108 101 104 107 109 104 90 69 48 50 33 22 37 46 32 60 66 76 59 56 32 31 27 46 50 85 125 120 98 96 86 71 57 44 12 37 65 65 45 21 6 3 74 76 68 51 48 30 72 96 82 79 61 23 84 62 45 12
123 105 104 101 105 106 107 105 104 104 105 106 87 61 46 45 37 20 25 10 16 20 56 50 14 60 45 41 39 76 131 273 94 104 102 91 85 84 71 52 49 32 58 65 45 49 49 57 62 48 70 67 40 20 87 106 108 129 122 84 64 45 44
149 140 124 117 113 111 114 117 110 103 95 92 101 93 83 67 39 33 40 9 360 344 32 11 19 25 70 54 52 28 340 78 93 84 92 104 102 95 90 86 56 52 45 53 53 67 69 67 62 55 45 69 90 57 61 83 98 92 51 49 38 23 3
142 143 138 133 129 131 131 135 129 119 103 102 108 114 106 85 61 28 28 22 17 0 4 349 29 299 110 75 63 19 18 57 73 92 100 104 112 114 114 107 101 75 53 48 40 54 74 80 74 69 64 56 67 100 103 87 71 59 47 31 30 8 353